Location: Paderno d�Adda
(45.6667°N, 9.4333°E)
Time: 01:27:04
(UTC+00:00)

OBJECT-B - Pass Details

Date: 19 September 2020
Orbit: 421 x 433 km, 97.0° (Epoch: 09 October)

Event Time Altitude Azimuth Distance (km) Brightness Sun altitude
Exits shadow 19:52:36 33° 308° (NW) 745 2.5 -25.4°
Drops below altitude 10° 19:54:45 10° 335° (NNW) 1,521 4.3 -25.7°
Sets 19:56:50 0° 342° (NNW) 2,393 5.3 -26.0°
